Home   Weather   Salta   Past weeks

Flag for Argentina Past Weather in Salta, Salta, Argentina — Yesterday and Last 2 Weeks

Now
86 °F

Passing clouds.


Feels Like: 84 °F
Forecast: 50 / 83 °F
Wind: 13 mph from North

Location: Salta Aerodrome

Current Time: Sep 28, 2016 at 5:36:34 PM

Latest Report: Sep 28, 2016 at 5:00 PM


Visibility: N/A

Pressure: 29.95 "Hg (26.21 "Hg at 1184m altitude)

Humidity: 29%

Dew Point: 50 °F

Location of SaltaLocation

Past Weather in Salta — Graph

°F

Salta Temperature Yesterday

Maximum temperature yesterday: 82 °F (at 3:00 PM)
Minimum temperature yesterday: 50 °F (at 5:00 AM)
Average temperature yesterday: 67 °F

High & Low Weather Summary for the Past Weeks

 TemperatureHumidityPressure
High90 °F (Sep 17, 4:00 PM)100% (Sep 26, 6:00 AM)30.39 "Hg (Sep 26, 6:00 AM)
Low41 °F (Sep 15, 5:00 AM)15% (Sep 17, 6:00 PM)29.80 "Hg (Sep 17, 3:00 PM)
Average62 °F58%30.12 "Hg
* Reported Sep 13 4:00 PM — Sep 28 4:00 PM, Salta, Weather by CustomWeather, © 2016

Note: Actual official high and low records may vary slightly from our data, if they occured in-between our weather recording intervals... More about our weather records

Advertising

Salta Weather History for the Previous 24 Hours

Scroll right to see more
 ConditionsComfort  
Time TempWeatherWind HumidityBarometerVisibility
4:00 PM
Wed, Sep 28
86 °FScattered clouds.13 mph31%29.98 "HgN/A
3:00 PM86 °FScattered clouds.10 mph29%29.98 "HgN/A
2:00 PM86 °FScattered clouds.9 mph31%30.01 "HgN/A
1:00 PM84 °FPassing clouds.6 mph33%30.04 "HgN/A
12:00 PM82 °FPassing clouds.5 mph37%30.04 "HgN/A
11:00 AM77 °FPassing clouds.2 mph47%30.07 "HgN/A
10:00 AM73 °FSunny.5 mph50%30.07 "Hg10 mi
9:00 AM66 °FSunny.2 mph64%30.07 "Hg10 mi
8:00 AM57 °FSunny.2 mph82%30.07 "Hg10 mi
7:00 AM57 °FClear.5 mph77%30.04 "Hg10 mi
6:00 AM57 °FClear.3 mph77%30.01 "Hg10 mi
5:00 AM57 °FClear.3 mph77%29.98 "Hg10 mi
4:00 AM55 °FClear.2 mph82%29.98 "Hg10 mi
3:00 AM57 °FClear.No wind82%29.98 "Hg10 mi
2:00 AM61 °FClear.No wind72%30.01 "Hg10 mi
1:00 AM63 °FClear.2 mph73%30.01 "Hg10 mi
12:00 AM66 °FClear.No wind64%30.04 "Hg10 mi
11:00 PM
Tue, Sep 27
66 °FPassing clouds.6 mph64%30.04 "HgN/A
10:00 PM70 °FPassing clouds.2 mph57%30.01 "HgN/A
9:00 PM72 °FPartly cloudy.5 mph50%30.01 "HgN/A
8:00 PM73 °FClear.6 mph47%29.98 "Hg10 mi
7:00 PM77 °FSunny.5 mph39%29.95 "Hg10 mi
6:00 PM81 °FSunny.12 mph32%29.95 "Hg10 mi
5:00 PM79 °FSunny.13 mph34%29.95 "Hg10 mi
Weather by CustomWeather, © 2016

See weather overviewHow to use our weather pages